Location: ?
(35.4996°N, 139.3166°E)
Time: 02:20:49
(UTC+00:00)

SL-16 R/B - Pass Details

Date: 24 July 2025
Orbit: 839 x 848 km, 71.0° (Epoch: 18 April)

Event Time Altitude Azimuth Distance (km) Brightness Sun altitude
Rises 16:45:21 0° 126° (SE) 3,379 5.3 -28.3°
Enters shadow 17:55:03 -63° 205° (SSW) 12,275 8.1 -19.4°
Maximum altitude 18:32:29 62° 108° (ESE) 937 2.6 -13.6°
